Weather History for Cork, Ireland

Change the Weather History Date:

Friday, February 8, 2013

  Actual Average Record
Temperature  
Mean Temperature 43 °F -  
Max Temperature 49 °F 47 °F 53 °F (2002)
Min Temperature 37 °F 37 °F 32 °F (2001)
Degree Days  
Heating Degree Days 22    
Moisture  
Dew Point 38 °F    
Average Humidity 83    
Maximum Humidity 93    
Minimum Humidity 66    
Precipitation  
Precipitation 0.00 in 0.14 in - ()
Sea Level Pressure  
Sea Level Pressure 30.30 in    
Wind  
Wind Speed 11 mph ()    
Max Wind Speed 21 mph    
Max Gust Speed -    
Visibility 6.7 miles    
Events      
Averages and records for this station are not official NWS values.
T = Trace of Precipitation, MM = Missing Value Source: Averaged Metar Reports

Daily Weather History Graph

Daily Weather History Graph

Search for Another Location

Airport:

Trip Planner

Search our weather history database for the weather conditions in past years. The results will help you decide how hot, cold, wet, or windy it might be!

Date:

Astronomy

Feb. 08, 2013 Rise Set
Actual Time 8:01 AM GMT 5:35 PM GMT
Civil Twilight 7:25 AM GMT 6:11 PM GMT
Nautical Twilight 6:46 AM GMT 6:51 PM GMT
Astronomical Twilight 6:07 AM GMT 7:30 PM GMT
Moon 6:27 AM GMT (2/8) 3:47 PM GMT (2/8)
Length of Visible Light 10h 45m
Length of Day
9h 34m
Waning Crescent, 4% of the Moon is Illuminated
Feb 8
Waning Crescent
Feb 10
New
Feb 17
First Quarter
Feb 25
Full
Mar 4
Last Quarter

Hourly Weather History & Observations

Time (GMT) Temp. Windchill Dew Point Humidity Pressure Visibility Wind Dir Wind Speed Gust Speed Precip Events Conditions
12:00 AM 42 °F - 36 °F 72% 30.28 in 19 mi NNW 20.1 mph - -   Partly Cloudy
12:00 AM 42.8 °F 34.0 °F 35.6 °F 76% 30.24 in 6.2 mi NNW 20.7 mph - N/A   Scattered Clouds
12:30 AM 41.0 °F 31.9 °F 35.6 °F 81% 30.27 in 6.2 mi NW 19.6 mph - N/A   Scattered Clouds
1:00 AM 42.8 °F 34.8 °F 35.6 °F 76% 30.27 in 6.2 mi NW 17.3 mph - N/A   Scattered Clouds
1:30 AM 41.0 °F 32.8 °F 35.6 °F 81% 30.27 in 6.2 mi NW 16.1 mph - N/A   Partly Cloudy
2:00 AM 41.0 °F 33.9 °F 35.6 °F 81% 30.27 in 6.2 mi WNW 12.7 mph - N/A   Partly Cloudy
2:30 AM 41.0 °F 36.4 °F 35.6 °F 81% 30.30 in 6.2 mi West 6.9 mph - N/A   Partly Cloudy
3:00 AM 39.2 °F 34.2 °F 37.4 °F 93% 30.30 in 6.2 mi WNW 6.9 mph - N/A   Partly Cloudy
3:30 AM 41.0 °F 34.7 °F 37.4 °F 87% 30.30 in 6.2 mi NW 10.4 mph - N/A   Partly Cloudy
4:00 AM 41.0 °F 34.7 °F 37.4 °F 87% 30.30 in 6.2 mi WNW 10.4 mph - N/A   Mostly Cloudy
4:30 AM 41.0 °F 35.2 °F 37.4 °F 87% 30.30 in 6.2 mi NW 9.2 mph - N/A   Scattered Clouds
5:00 AM 41.0 °F 34.7 °F 37.4 °F 87% 30.30 in 6.2 mi NW 10.4 mph - N/A   Mostly Cloudy
5:30 AM 41.0 °F 35.2 °F 37.4 °F 87% 30.30 in 6.2 mi NW 9.2 mph - N/A   Mostly Cloudy
6:00 AM 41 °F - 37 °F 80% 30.35 in 19 mi NW 11.2 mph - -   Mostly Cloudy
6:00 AM 41.0 °F 34.7 °F 37.4 °F 87% 30.30 in 6.2 mi NW 10.4 mph - N/A   Mostly Cloudy
6:30 AM 41.0 °F 34.3 °F 37.4 °F 87% 30.33 in 6.2 mi NW 11.5 mph - N/A   Mostly Cloudy
7:00 AM 41.0 °F 34.3 °F 37.4 °F 87% 30.33 in 6.2 mi WNW 11.5 mph - N/A   Scattered Clouds
7:30 AM 41.0 °F 35.2 °F 37.4 °F 87% 30.33 in 6.2 mi NW 9.2 mph - N/A   Scattered Clouds
8:00 AM 41.0 °F 35.2 °F 37.4 °F 87% 30.33 in 6.2 mi NW 9.2 mph - N/A   Mostly Cloudy
8:30 AM 41.0 °F 34.3 °F 37.4 °F 87% 30.33 in 6.2 mi NW 11.5 mph - N/A   Mostly Cloudy
9:00 AM 41.0 °F 36.4 °F 39.2 °F 93% 30.33 in 6.2 mi WNW 6.9 mph - N/A   Mostly Cloudy
9:30 AM 42.8 °F 38.6 °F 39.2 °F 87% 30.33 in 6.2 mi NW 6.9 mph - N/A   Mostly Cloudy
10:00 AM 42.8 °F 38.0 °F 39.2 °F 87% 30.33 in 6.2 mi WNW 8.1 mph - N/A   Mostly Cloudy
10:30 AM 42.8 °F 38.0 °F 39.2 °F 87% 30.33 in 6.2 mi NW 8.1 mph - N/A   Mostly Cloudy
11:00 AM 44.6 °F 39.2 °F 41.0 °F 87% 30.33 in 6.2 mi NW 10.4 mph - N/A   Mostly Cloudy
11:30 AM 44.6 °F 38.8 °F 41.0 °F 87% 30.33 in 6.2 mi WNW 11.5 mph - N/A   Mostly Cloudy
12:00 PM 46.4 °F 40.7 °F 41.0 °F 81% 30.33 in 6.2 mi NW 12.7 mph - N/A   Mostly Cloudy
12:30 PM 46.4 °F 40.4 °F 41.0 °F 81% 30.33 in 6.2 mi NW 13.8 mph - N/A   Mostly Cloudy
1:00 PM 48.2 °F - 41.0 °F 76% 30.33 in 6.2 mi NW 16.1 mph - N/A   Mostly Cloudy
1:30 PM 48.2 °F - 41.0 °F 76% 30.33 in 6.2 mi NW 15.0 mph - N/A   Scattered Clouds
2:00 PM 48.2 °F - 39.2 °F 71% 30.33 in 6.2 mi NW 13.8 mph - N/A   Mostly Cloudy
2:30 PM 50.0 °F - 41.0 °F 71% 30.30 in 6.2 mi NW 16.1 mph - N/A   Scattered Clouds
3:00 PM 48.2 °F - 39.2 °F 71% 30.30 in 6.2 mi NW 13.8 mph - N/A   Scattered Clouds
3:30 PM 50.0 °F - 39.2 °F 66% 30.30 in 6.2 mi NW 13.8 mph - N/A   Scattered Clouds
4:00 PM 48.2 °F - 39.2 °F 71% 30.30 in 6.2 mi WNW 11.5 mph - N/A   Partly Cloudy
4:30 PM 48.2 °F - 39.2 °F 71% 30.30 in 6.2 mi WNW 9.2 mph - N/A   Partly Cloudy
5:00 PM 46.4 °F 41.5 °F 39.2 °F 76% 30.30 in 6.2 mi NW 10.4 mph - N/A   Partly Cloudy
5:30 PM 46.4 °F 41.1 °F 39.2 °F 76% 30.30 in 6.2 mi NW 11.5 mph - N/A   Partly Cloudy
6:00 PM 44 °F - 38 °F 74% 30.33 in 25 mi West 6.7 mph - -   Scattered Clouds
6:00 PM 44.6 °F 41.4 °F 39.2 °F 81% 30.30 in 6.2 mi West 5.8 mph - N/A   Partly Cloudy
6:30 PM 42.8 °F 38.6 °F 39.2 °F 87% 30.30 in 6.2 mi WNW 6.9 mph - N/A   Partly Cloudy
7:00 PM 42.8 °F 38.6 °F 39.2 °F 87% 30.30 in 6.2 mi West 6.9 mph - N/A   Partly Cloudy
7:30 PM 42.8 °F 38.6 °F 39.2 °F 87% 30.30 in 6.2 mi West 6.9 mph - N/A   Partly Cloudy
8:00 PM 41.0 °F 35.8 °F 39.2 °F 93% 30.30 in 6.2 mi West 8.1 mph - N/A   Scattered Clouds
8:30 PM 41.0 °F 38.0 °F 39.2 °F 93% 30.30 in 6.2 mi West 4.6 mph - N/A   Scattered Clouds
9:00 PM 41.0 °F 37.1 °F 39.2 °F 93% 30.27 in 6.2 mi West 5.8 mph - N/A   Partly Cloudy
9:30 PM 39.2 °F 34.2 °F 37.4 °F 93% 30.27 in 6.2 mi West 6.9 mph - N/A   Partly Cloudy
10:00 PM 41.0 °F 35.8 °F 37.4 °F 87% 30.27 in 6.2 mi West 8.1 mph - N/A   Partly Cloudy
10:30 PM 39.2 °F 33.6 °F 37.4 °F 93% 30.27 in 6.2 mi WSW 8.1 mph - N/A   Partly Cloudy
11:00 PM 37.4 °F 30.8 °F 35.6 °F 93% 30.27 in 6.2 mi WSW 9.2 mph - N/A   Mostly Cloudy
11:30 PM 41.0 °F 35.8 °F 37.4 °F 87% 30.27 in 6.2 mi West 8.1 mph - N/A   Mostly Cloudy